Overview Statistics Trail Chart Weather Telemetry Raw packets
 

This is the latest recevied weather packets stored in our database for station/object SV9TNF-57. If no packets are shown the sender has not sent any weather packets the latest 10 day(s).

<< 84 85 86 87 88 89 90 >>
Time Temp. Humidity Pressure Rain* Wind** Luminosity Snow
1788045723 24.44° C 68% 996 hPa 0 mm 0 m/s - -
1788045437 24.44° C 67% 996.1 hPa 0 mm 0 m/s - -
1788045123 24.44° C 66% 996.1 hPa 0 mm 0 m/s - -
1788044823 24.44° C 63% 996.2 hPa 0 mm 0 m/s - -
1788044523 23.89° C 62% 996.2 hPa 0 mm 3.13 m/s, 321° - -
1788044223 23.89° C 61% 996.3 hPa 0 mm 0.45 m/s, 304° - -
1788043923 23.89° C 60% 996.4 hPa 0 mm 0 m/s - -
1788043622 23.89° C 61% 996.4 hPa 0 mm 0 m/s - -
1788043322 23.89° C 62% 996.3 hPa 0 mm 0.45 m/s, 323° - -
1788043022 23.89° C 62% 996.2 hPa 0 mm 1.34 m/s, 303° - -
1788042722 23.89° C 61% 996.4 hPa 0 mm 2.24 m/s, 321° - -
1788042422 23.89° C 62% 996.3 hPa 0 mm 0 m/s - -
1788042122 23.89° C 62% 996.3 hPa 0 mm 0.45 m/s, 294° - -
1788041822 23.89° C 62% 996.3 hPa 0 mm 2.24 m/s, 345° - -
1788041522 23.89° C 63% 996.5 hPa 0 mm 0.89 m/s, 278° - -
1788041222 23.89° C 63% 996.5 hPa 0 mm 0.45 m/s, 268° - -
1788040922 23.89° C 64% 996.7 hPa 0 mm 0 m/s - -
1788040622 23.89° C 63% 996.7 hPa 0 mm 0.89 m/s, 275° - -
1788040321 23.89° C 63% 996.8 hPa 0 mm 0.89 m/s, 315° - -
1788040021 23.89° C 64% 996.7 hPa 0 mm 0.45 m/s, 318° - -
1788039721 23.89° C 65% 996.7 hPa 0 mm 2.24 m/s, 280° - -
1788039421 23.89° C 65% 996.8 hPa 0 mm 0 m/s - -
1788039121 23.33° C 66% 996.6 hPa 0 mm 0 m/s - -
1788038821 23.33° C 67% 996.8 hPa 0 mm 0.89 m/s, 280° - -
1788038521 23.33° C 68% 996.6 hPa 0 mm 0.89 m/s, 286° - -

* Rain latest hour (hover to see other rain measurements)
** Current wind speed in m/s (hover to see current wind gust speed)